Change the Weather History Date:

Friday, October 26, 2012

  Actual Average Record
Temperature  
Mean Temperature 34 °F 47 °F  
Max Temperature 39 °F 59 °F 89 °F (1922)
Min Temperature 28 °F 35 °F 14 °F (1942)
Degree Days  
Heating Degree Days 31 18  
Month to date heating degree days 412 346  
Since 1 July heating degree days 531 488  
Cooling Degree Days 0 0  
Month to date cooling degree days 0 8  
Year to date cooling degree days 1373 914  
Moisture  
Dew Point 24 °F    
Average Humidity 62    
Maximum Humidity 75    
Minimum Humidity 48    
Precipitation  
Precipitation 0.00 in 0.05 in 0.66 in (1998)
Month to date precipitation 0.49 1.82  
Year to date precipitation 12.94 25.04  
Snow  
Snow 0.00 in 0.00 in - ()
Month to date snowfall T 0.5  
Since 1 July snowfall T 0.5  
Snow Depth 0.00 in    
Sea Level Pressure  
Sea Level Pressure 30.46 in    
Wind  
Wind Speed 8 mph (NW)    
Max Wind Speed 15 mph    
Max Gust Speed 21 mph    
Visibility 10 miles    
Events      
T = Trace of Precipitation, MM = Missing Value Source: NWS Daily Summary

Daily Weather History Graph

Daily Weather History Graph

Search for Another Location

Airport or City:

Trip Planner

Search our weather history database for the weather conditions in past years. The results will help you decide how hot, cold, wet, or windy it might be!

Date:

Astronomy

Oct. 26, 2012 Rise Set
Actual Time 7:55 AM CDT 6:30 PM CDT
Civil Twilight 7:27 AM CDT 6:59 PM CDT
Nautical Twilight 6:54 AM CDT 7:32 PM CDT
Astronomical Twilight 6:21 AM CDT 8:04 PM CDT
Moon 4:49 PM CDT (10/26) 4:50 AM CDT (10/26)
Length of Visible Light 11h 32m
Length of Day
10h 35m
Waxing Gibbous, 91% of the Moon is Illuminated
Oct 26
Waxing Gibbous
Oct 29
Full
Nov 6
Last Quarter
Nov 13
New
Nov 20
First Quarter

Hourly Weather History & Observations

Time (CDT) Temp. Windchill Dew Point Humidity Pressure Visibility Wind Dir Wind Speed Gust Speed Precip Events Conditions
12:56 AM 34.0 °F 26.6 °F 25.0 °F 70% 30.39 in 10.0 mi NW 9.2 mph - N/A   Overcast
1:56 AM 34.0 °F 26.6 °F 25.0 °F 70% 30.39 in 10.0 mi NW 9.2 mph - N/A   Overcast
2:56 AM 34.0 °F 26.0 °F 25.0 °F 70% 30.42 in 10.0 mi WNW 10.4 mph - N/A   Overcast
3:56 AM 34.0 °F 25.0 °F 24.1 °F 67% 30.43 in 10.0 mi NW 12.7 mph - N/A   Overcast
4:56 AM 34.0 °F 25.0 °F 24.1 °F 67% 30.44 in 10.0 mi NW 12.7 mph - N/A   Overcast
5:56 AM 34.0 °F 26.0 °F 24.1 °F 67% 30.47 in 10.0 mi NW 10.4 mph - N/A   Overcast
6:56 AM 33.1 °F 26.1 °F 25.0 °F 72% 30.48 in 10.0 mi NNW 8.1 mph - N/A   Overcast
7:56 AM 33.1 °F 26.1 °F 24.1 °F 70% 30.49 in 10.0 mi NW 8.1 mph - N/A   Overcast
9:56 AM 36.0 °F 28.0 °F 24.1 °F 62% 30.53 in 10.0 mi NW 11.5 mph - N/A   Overcast
10:56 AM 37.0 °F 32.4 °F 23.0 °F 57% 30.53 in 10.0 mi NNW 5.8 mph - N/A   Overcast
11:56 AM 37.0 °F 31.0 °F 23.0 °F 57% 30.53 in 10.0 mi NNW 8.1 mph - N/A   Overcast
12:56 PM 37.9 °F 30.9 °F 23.0 °F 55% 30.53 in 10.0 mi WNW 10.4 mph - N/A   Overcast
1:56 PM 39.0 °F 32.3 °F 21.0 °F 49% 30.50 in 10.0 mi NNW 10.4 mph - N/A   Overcast
2:56 PM 37.9 °F 30.9 °F 21.0 °F 51% 30.49 in 10.0 mi WNW 10.4 mph - N/A   Overcast
3:56 PM 37.9 °F 30.0 °F 24.1 °F 57% 30.47 in 10.0 mi NW 12.7 mph - N/A   Overcast
4:56 PM 37.9 °F 29.2 °F 21.9 °F 53% 30.46 in 10.0 mi NW 15.0 mph 20.7 mph N/A   Overcast
5:56 PM 36.0 °F 29.6 °F 21.9 °F 57% 30.45 in 10.0 mi NW 8.1 mph - N/A   Overcast
6:56 PM 35.1 °F 26.9 °F 21.9 °F 59% 30.46 in 10.0 mi NW 11.5 mph - N/A   Overcast
7:56 PM 35.1 °F 28.6 °F 21.0 °F 57% 30.47 in 10.0 mi NW 8.1 mph - N/A   Overcast
8:56 PM 35.1 °F 31.0 °F 23.0 °F 61% 30.46 in 10.0 mi WNW 4.6 mph - N/A   Overcast
9:56 PM 34.0 °F - 25.0 °F 70% 30.44 in 10.0 mi Calm Calm - N/A   Overcast
10:56 PM 34.0 °F - 25.0 °F 70% 30.43 in 10.0 mi Calm Calm - N/A   Overcast
11:56 PM 34.0 °F - 26.1 °F 73% 30.43 in 10.0 mi Calm Calm - N/A   Overcast